Time,TemperatureF,DewpointF,PressureIn,WindDirection,WindDirectionDegrees,WindSpeedMPH,WindSpeedGustMPH,Humidity,HourlyPrecipIn,Conditions,Clouds,dailyrainin,SoftwareType,DateUTC
2013-04-04 00:02:00,34.0,21.0,30.30,SE,126,3.0,7.0,58,0.00,,,0.00,,2013-04-04 05:02:00,
2013-04-04 00:13:00,34.0,21.0,30.30,SE,126,3.0,7.0,58,0.00,,,0.00,,2013-04-04 05:13:00,
2013-04-04 00:23:00,34.0,21.0,30.29,SE,126,3.0,6.0,58,0.00,,,0.00,,2013-04-04 05:23:00,
2013-04-04 00:32:00,34.0,20.0,30.29,SE,134,2.0,8.0,57,0.00,,,0.00,,2013-04-04 05:32:00,
2013-04-04 00:42:00,34.0,20.0,30.29,SE,134,2.0,8.0,57,0.00,,,0.00,,2013-04-04 05:42:00,
2013-04-04 00:53:00,33.0,20.0,30.29,SE,127,2.0,6.0,58,0.00,,,0.00,,2013-04-04 05:53:00,
2013-04-04 01:02:00,33.0,20.0,30.28,SE,142,2.0,6.0,58,0.00,,,0.00,,2013-04-04 06:02:00,
2013-04-04 01:12:00,33.0,20.0,30.28,SE,142,2.0,6.0,58,0.00,,,0.00,,2013-04-04 06:12:00,
2013-04-04 01:22:00,33.0,20.0,30.28,SE,139,2.0,7.0,59,0.00,,,0.00,,2013-04-04 06:22:00,
2013-04-04 01:32:00,32.0,19.0,30.27,SE,129,2.0,4.0,58,0.00,,,0.00,,2013-04-04 06:32:00,
2013-04-04 01:42:00,32.0,19.0,30.27,SE,129,2.0,4.0,58,0.00,,,0.00,,2013-04-04 06:42:00,
2013-04-04 01:53:00,32.0,19.0,30.27,SE,134,1.0,4.0,58,0.00,,,0.00,,2013-04-04 06:53:00,
2013-04-04 02:02:00,32.0,19.0,30.26,SE,131,2.0,8.0,58,0.00,,,0.00,,2013-04-04 07:02:00,
2013-04-04 02:12:00,32.0,19.0,30.26,SE,131,2.0,8.0,58,0.00,,,0.00,,2013-04-04 07:12:00,
2013-04-04 02:22:00,32.0,19.0,30.26,SE,140,2.0,6.0,58,0.00,,,0.00,,2013-04-04 07:22:00,
2013-04-04 02:32:00,32.0,19.0,30.25,SE,142,3.0,5.0,57,0.00,,,0.00,,2013-04-04 07:32:00,
2013-04-04 02:43:00,32.0,19.0,30.25,SE,142,3.0,5.0,57,0.00,,,0.00,,2013-04-04 07:43:00,
2013-04-04 02:52:00,32.0,19.0,30.24,SE,132,2.0,6.0,58,0.00,,,0.00,,2013-04-04 07:52:00,
2013-04-04 03:02:00,32.0,19.0,30.24,SE,143,1.0,7.0,58,0.00,,,0.00,,2013-04-04 08:02:00,
2013-04-04 03:12:00,32.0,19.0,30.24,SE,143,1.0,7.0,58,0.00,,,0.00,,2013-04-04 08:12:00,
2013-04-04 03:22:00,31.0,18.0,30.24,SE,139,2.0,5.0,58,0.00,,,0.00,,2013-04-04 08:22:00,
2013-04-04 03:32:00,31.0,18.0,30.23,SSE,150,2.0,7.0,59,0.00,,,0.00,,2013-04-04 08:32:00,
2013-04-04 03:43:00,31.0,18.0,30.23,SSE,150,2.0,7.0,59,0.00,,,0.00,,2013-04-04 08:43:00,
2013-04-04 03:52:00,31.0,19.0,30.23,SE,144,3.0,5.0,60,0.00,,,0.00,,2013-04-04 08:52:00,
2013-04-04 04:02:00,30.0,19.0,30.23,SE,140,1.0,4.0,62,0.00,,,0.00,,2013-04-04 09:02:00,
2013-04-04 04:12:00,30.0,19.0,30.23,SE,140,1.0,4.0,62,0.00,,,0.00,,2013-04-04 09:12:00,
2013-04-04 04:22:00,30.0,19.0,30.23,SE,133,1.0,4.0,62,0.00,,,0.00,,2013-04-04 09:22:00,
2013-04-04 04:33:00,30.0,19.0,30.23,SE,133,1.0,4.0,62,0.00,,,0.00,,2013-04-04 09:33:00,
2013-04-04 04:43:00,30.0,19.0,30.23,SE,133,1.0,4.0,62,0.00,,,0.00,,2013-04-04 09:43:00,
2013-04-04 04:54:00,30.0,19.0,30.22,SE,128,2.0,5.0,64,0.00,,,0.00,,2013-04-04 09:54:00,
2013-04-04 05:04:00,30.0,20.0,30.22,SE,140,3.0,5.0,65,0.00,,,0.00,,2013-04-04 10:04:00,
2013-04-04 05:12:00,30.0,20.0,30.22,SE,140,3.0,5.0,65,0.00,,,0.00,,2013-04-04 10:12:00,
2013-04-04 05:23:00,30.0,20.0,30.21,SE,136,3.0,7.0,66,0.00,,,0.00,,2013-04-04 10:23:00,
2013-04-04 05:33:00,30.0,20.0,30.21,SE,134,2.0,5.0,66,0.00,,,0.00,,2013-04-04 10:33:00,
2013-04-04 05:42:00,30.0,20.0,30.21,SE,134,2.0,5.0,66,0.00,,,0.00,,2013-04-04 10:42:00,
2013-04-04 05:54:00,30.0,20.0,30.21,SE,131,2.0,6.0,66,0.00,,,0.00,,2013-04-04 10:54:00,
2013-04-04 06:02:00,30.0,20.0,30.21,SE,131,2.0,6.0,66,0.00,,,0.00,,2013-04-04 11:02:00,
2013-04-04 06:12:00,30.0,20.0,30.21,SE,131,2.0,6.0,66,0.00,,,0.00,,2013-04-04 11:12:00,
2013-04-04 06:22:00,30.0,20.0,30.20,SE,142,1.0,4.0,67,0.00,,,0.00,,2013-04-04 11:22:00,
2013-04-04 06:32:00,30.0,20.0,30.20,SE,140,1.0,3.0,67,0.00,,,0.00,,2013-04-04 11:32:00,
2013-04-04 06:43:00,30.0,20.0,30.20,SE,140,1.0,3.0,67,0.00,,,0.00,,2013-04-04 11:43:00,
2013-04-04 06:54:00,29.0,20.0,30.20,SE,138,2.0,5.0,70,0.00,,,0.00,,2013-04-04 11:54:00,
2013-04-04 07:02:00,29.0,21.0,30.20,SE,135,1.0,4.0,71,0.00,,,0.00,,2013-04-04 12:02:00,
2013-04-04 07:12:00,29.0,21.0,30.20,SE,135,1.0,4.0,71,0.00,,,0.00,,2013-04-04 12:12:00,
2013-04-04 07:22:00,29.0,21.0,30.20,SE,144,1.0,3.0,72,0.00,,,0.00,,2013-04-04 12:22:00,
2013-04-04 07:32:00,29.0,21.0,30.21,SE,139,2.0,5.0,72,0.00,,,0.00,,2013-04-04 12:32:00,
2013-04-04 07:43:00,29.0,21.0,30.21,SE,139,2.0,5.0,72,0.00,,,0.00,,2013-04-04 12:43:00,
2013-04-04 07:52:00,30.0,22.0,30.21,SE,134,0.0,5.0,71,0.00,,,0.00,,2013-04-04 12:52:00,
2013-04-04 08:02:00,31.0,22.0,30.21,SE,136,2.0,5.0,70,0.00,,,0.00,,2013-04-04 13:02:00,
2013-04-04 08:12:00,31.0,22.0,30.21,SE,136,2.0,5.0,70,0.00,,,0.00,,2013-04-04 13:12:00,
2013-04-04 08:22:00,34.0,24.0,30.21,SSE,148,2.0,4.0,67,0.00,,,0.00,,2013-04-04 13:22:00,
2013-04-04 08:32:00,36.0,24.0,30.20,SE,146,1.0,2.0,62,0.00,,,0.00,,2013-04-04 13:32:00,
2013-04-04 08:42:00,36.0,24.0,30.20,SE,146,1.0,2.0,62,0.00,,,0.00,,2013-04-04 13:42:00,
2013-04-04 08:53:00,39.0,25.0,30.19,SE,145,0.0,2.0,56,0.00,,,0.00,,2013-04-04 13:53:00,
2013-04-04 09:03:00,41.0,24.0,30.19,SE,134,0.0,3.0,51,0.00,,,0.00,,2013-04-04 14:03:00,
2013-04-04 09:12:00,41.0,24.0,30.19,SE,134,0.0,3.0,51,0.00,,,0.00,,2013-04-04 14:12:00,
2013-04-04 09:22:00,43.0,24.0,30.18,ESE,113,3.0,7.0,46,0.00,,,0.00,,2013-04-04 14:22:00,
2013-04-04 09:32:00,44.0,22.0,30.18,SE,142,3.0,8.0,41,0.00,,,0.00,,2013-04-04 14:32:00,
2013-04-04 09:42:00,44.0,22.0,30.18,SE,142,3.0,8.0,41,0.00,,,0.00,,2013-04-04 14:42:00,
2013-04-04 09:53:00,45.0,23.0,30.17,West,269,2.0,6.0,42,0.00,,,0.00,,2013-04-04 14:53:00,
2013-04-04 10:02:00,46.0,24.0,30.16,SW,222,1.0,7.0,42,0.00,,,0.00,,2013-04-04 15:02:00,
2013-04-04 10:12:00,46.0,24.0,30.16,SW,222,1.0,7.0,42,0.00,,,0.00,,2013-04-04 15:12:00,
2013-04-04 10:23:00,47.0,26.0,30.16,West,277,2.0,7.0,43,0.00,,,0.00,,2013-04-04 15:23:00,
2013-04-04 10:33:00,48.0,24.0,30.15,WSW,252,2.0,8.0,39,0.00,,,0.00,,2013-04-04 15:33:00,
2013-04-04 10:43:00,48.0,24.0,30.15,WSW,252,2.0,8.0,39,0.00,,,0.00,,2013-04-04 15:43:00,
2013-04-04 10:54:00,49.0,25.0,30.15,ESE,118,3.0,11.0,38,0.00,,,0.00,,2013-04-04 15:54:00,
2013-04-04 11:03:00,49.0,24.0,30.14,West,267,6.0,12.0,37,0.00,,,0.00,,2013-04-04 16:03:00,
2013-04-04 11:12:00,49.0,24.0,30.14,West,267,6.0,12.0,37,0.00,,,0.00,,2013-04-04 16:12:00,
2013-04-04 11:24:00,49.0,23.0,30.14,West,281,4.0,10.0,36,0.00,,,0.00,,2013-04-04 16:24:00,
2013-04-04 11:32:00,49.0,23.0,30.13,NW,315,4.0,9.0,36,0.00,,,0.00,,2013-04-04 16:32:00,
2013-04-04 11:42:00,49.0,23.0,30.13,NW,315,4.0,9.0,36,0.00,,,0.00,,2013-04-04 16:42:00,
2013-04-04 11:53:00,51.0,24.0,30.13,East,82,6.0,10.0,35,0.00,,,0.00,,2013-04-04 16:53:00,
2013-04-04 12:03:00,51.0,25.0,30.12,West,281,2.0,8.0,36,0.00,,,0.00,,2013-04-04 17:03:00,
2013-04-04 12:13:00,51.0,25.0,30.12,West,281,2.0,8.0,36,0.00,,,0.00,,2013-04-04 17:13:00,
2013-04-04 12:22:00,52.0,24.0,30.11,NNE,13,2.0,9.0,33,0.00,,,0.00,,2013-04-04 17:22:00,
2013-04-04 12:33:00,52.0,24.0,30.11,NNE,13,2.0,9.0,33,0.00,,,0.00,,2013-04-04 17:33:00,
2013-04-04 12:42:00,52.0,24.0,30.11,NNE,13,2.0,9.0,33,0.00,,,0.00,,2013-04-04 17:42:00,
2013-04-04 12:53:00,53.0,25.0,30.10,WSW,242,1.0,7.0,33,0.00,,,0.00,,2013-04-04 17:53:00,
2013-04-04 13:02:00,53.0,23.0,30.09,WSW,253,3.0,10.0,31,0.00,,,0.00,,2013-04-04 18:02:00,
2013-04-04 13:12:00,53.0,23.0,30.09,WSW,253,3.0,10.0,31,0.00,,,0.00,,2013-04-04 18:12:00,
2013-04-04 13:23:00,53.0,23.0,30.09,WSW,253,3.0,10.0,31,0.00,,,0.00,,2013-04-04 18:23:00,
2013-04-04 13:32:00,54.0,26.0,30.08,NW,304,3.0,12.0,33,0.00,,,0.00,,2013-04-04 18:32:00,
2013-04-04 13:43:00,54.0,26.0,30.08,NW,304,3.0,12.0,33,0.00,,,0.00,,2013-04-04 18:43:00,
2013-04-04 13:52:00,54.0,24.0,30.07,West,269,4.0,10.0,31,0.00,,,0.00,,2013-04-04 18:52:00,
2013-04-04 14:02:00,55.0,26.0,30.06,NW,325,3.0,10.0,32,0.00,,,0.00,,2013-04-04 19:02:00,
2013-04-04 14:12:00,55.0,26.0,30.06,NW,325,3.0,10.0,32,0.00,,,0.00,,2013-04-04 19:12:00,
2013-04-04 14:22:00,55.0,24.0,30.06,WNW,284,5.0,10.0,30,0.00,,,0.00,,2013-04-04 19:22:00,
2013-04-04 14:32:00,55.0,24.0,30.05,West,273,4.0,10.0,30,0.00,,,0.00,,2013-04-04 19:32:00,
2013-04-04 14:42:00,55.0,24.0,30.05,West,273,4.0,10.0,30,0.00,,,0.00,,2013-04-04 19:42:00,
2013-04-04 14:52:00,56.0,25.0,30.04,North,355,6.0,9.0,30,0.00,,,0.00,,2013-04-04 19:52:00,
2013-04-04 15:03:00,57.0,26.0,30.04,WSW,241,4.0,12.0,30,0.00,,,0.00,,2013-04-04 20:03:00,
2013-04-04 15:12:00,57.0,26.0,30.04,WSW,241,4.0,12.0,30,0.00,,,0.00,,2013-04-04 20:12:00,
2013-04-04 15:23:00,56.0,27.0,30.03,SW,234,3.0,10.0,32,0.00,,,0.00,,2013-04-04 20:23:00,
2013-04-04 15:32:00,56.0,27.0,30.02,NW,311,3.0,10.0,33,0.00,,,0.00,,2013-04-04 20:32:00,
2013-04-04 15:42:00,56.0,27.0,30.02,NW,311,3.0,10.0,33,0.00,,,0.00,,2013-04-04 20:42:00,
2013-04-04 15:53:00,57.0,27.0,30.01,North,5,5.0,8.0,32,0.00,,,0.00,,2013-04-04 20:53:00,
2013-04-04 16:02:00,58.0,28.0,30.01,West,270,3.0,8.0,31,0.00,,,0.00,,2013-04-04 21:02:00,
2013-04-04 16:12:00,58.0,28.0,30.01,West,270,3.0,8.0,31,0.00,,,0.00,,2013-04-04 21:12:00,
2013-04-04 16:22:00,59.0,29.0,30.00,West,267,4.0,12.0,32,0.00,,,0.00,,2013-04-04 21:22:00,
2013-04-04 16:32:00,59.0,28.0,30.00,West,281,2.0,7.0,31,0.00,,,0.00,,2013-04-04 21:32:00,
2013-04-04 16:43:00,59.0,28.0,30.00,West,281,2.0,7.0,31,0.00,,,0.00,,2013-04-04 21:43:00,
2013-04-04 16:52:00,59.0,28.0,29.99,NW,323,2.0,10.0,31,0.00,,,0.00,,2013-04-04 21:52:00,
2013-04-04 17:03:00,60.0,30.0,29.99,WSW,258,4.0,10.0,32,0.00,,,0.00,,2013-04-04 22:03:00,
2013-04-04 17:12:00,60.0,30.0,29.99,WSW,258,4.0,10.0,32,0.00,,,0.00,,2013-04-04 22:12:00,
2013-04-04 17:23:00,59.0,29.0,29.99,SSW,211,2.0,10.0,32,0.00,,,0.00,,2013-04-04 22:23:00,
2013-04-04 17:33:00,60.0,29.0,29.98,NNW,346,5.0,10.0,31,0.00,,,0.00,,2013-04-04 22:33:00,
2013-04-04 17:42:00,60.0,29.0,29.98,NNW,346,5.0,10.0,31,0.00,,,0.00,,2013-04-04 22:42:00,
2013-04-04 17:52:00,60.0,30.0,29.99,WSW,248,6.0,11.0,32,0.00,,,0.00,,2013-04-04 22:52:00,
2013-04-04 18:02:00,60.0,32.0,29.99,WNW,288,3.0,8.0,34,0.00,,,0.00,,2013-04-04 23:02:00,
2013-04-04 18:12:00,60.0,32.0,29.99,WNW,288,3.0,8.0,34,0.00,,,0.00,,2013-04-04 23:12:00,
2013-04-04 18:22:00,59.0,30.0,29.99,West,265,3.0,10.0,33,0.00,,,0.00,,2013-04-04 23:22:00,
2013-04-04 18:32:00,58.0,30.0,29.99,NW,322,3.0,9.0,34,0.00,,,0.00,,2013-04-04 23:32:00,
2013-04-04 18:42:00,58.0,30.0,29.99,NW,322,3.0,9.0,34,0.00,,,0.00,,2013-04-04 23:42:00,
2013-04-04 18:52:00,58.0,31.0,29.98,West,268,3.0,8.0,36,0.00,,,0.00,,2013-04-04 23:52:00,
2013-04-04 19:02:00,57.0,31.0,29.98,West,265,3.0,8.0,37,0.00,,,0.00,,2013-04-05 00:02:00,
2013-04-04 19:12:00,57.0,31.0,29.98,West,265,3.0,8.0,37,0.00,,,0.00,,2013-04-05 00:12:00,
2013-04-04 19:22:00,57.0,31.0,29.98,West,265,3.0,8.0,37,0.00,,,0.00,,2013-04-05 00:22:00,
2013-04-04 19:32:00,57.0,31.0,29.98,West,265,3.0,8.0,37,0.00,,,0.00,,2013-04-05 00:32:00,
2013-04-04 19:42:00,57.0,31.0,29.98,West,265,3.0,8.0,37,0.00,,,0.00,,2013-04-05 00:42:00,
2013-04-04 19:52:00,56.0,31.0,29.97,WSW,251,0.0,4.0,39,0.00,,,0.00,,2013-04-05 00:52:00,
2013-04-04 20:02:00,55.0,32.0,29.97,WSW,251,0.0,2.0,41,0.00,,,0.00,,2013-04-05 01:02:00,
2013-04-04 20:12:00,55.0,32.0,29.97,WSW,251,0.0,2.0,41,0.00,,,0.00,,2013-04-05 01:12:00,
2013-04-04 20:22:00,54.0,32.0,29.97,WSW,251,0.0,1.0,43,0.00,,,0.00,,2013-04-05 01:22:00,
2013-04-04 20:32:00,52.0,31.0,29.97,WSW,251,0.0,0.0,45,0.00,,,0.00,,2013-04-05 01:32:00,
2013-04-04 20:42:00,52.0,31.0,29.97,WSW,251,0.0,0.0,45,0.00,,,0.00,,2013-04-05 01:42:00,
2013-04-04 20:52:00,51.0,32.0,29.98,WSW,251,0.0,0.0,48,0.00,,,0.00,,2013-04-05 01:52:00,
2013-04-04 21:03:00,50.0,32.0,29.98,WSW,251,0.0,0.0,50,0.00,,,0.00,,2013-04-05 02:03:00,
2013-04-04 21:12:00,50.0,32.0,29.98,WSW,251,0.0,0.0,50,0.00,,,0.00,,2013-04-05 02:12:00,
2013-04-04 21:22:00,49.0,33.0,29.98,WSW,251,0.0,1.0,53,0.00,,,0.00,,2013-04-05 02:22:00,
2013-04-04 21:32:00,47.0,33.0,29.99,WSW,251,0.0,0.0,57,0.00,,,0.00,,2013-04-05 02:32:00,
2013-04-04 21:42:00,47.0,33.0,29.99,WSW,251,0.0,0.0,57,0.00,,,0.00,,2013-04-05 02:42:00,
2013-04-04 21:52:00,46.0,32.0,29.99,WSW,251,0.0,0.0,59,0.00,,,0.00,,2013-04-05 02:52:00,
2013-04-04 22:02:00,47.0,34.0,29.99,WSW,251,0.0,2.0,60,0.00,,,0.00,,2013-04-05 03:02:00,
2013-04-04 22:12:00,47.0,34.0,29.99,WSW,251,0.0,2.0,60,0.00,,,0.00,,2013-04-05 03:12:00,
2013-04-04 22:22:00,48.0,36.0,29.99,WSW,252,1.0,3.0,62,0.00,,,0.00,,2013-04-05 03:22:00,
2013-04-04 22:32:00,49.0,37.0,30.00,NW,320,2.0,5.0,63,0.00,,,0.00,,2013-04-05 03:32:00,
2013-04-04 22:43:00,49.0,37.0,30.00,NW,320,2.0,5.0,63,0.00,,,0.00,,2013-04-05 03:43:00,
2013-04-04 22:53:00,49.0,38.0,30.00,NW,321,2.0,3.0,65,0.00,,,0.00,,2013-04-05 03:53:00,
2013-04-04 23:02:00,48.0,38.0,30.00,NW,308,2.0,4.0,67,0.00,,,0.00,,2013-04-05 04:02:00,
2013-04-04 23:12:00,48.0,38.0,30.00,NW,308,2.0,4.0,67,0.00,,,0.00,,2013-04-05 04:12:00,
2013-04-04 23:22:00,47.0,37.0,30.01,NW,314,2.0,5.0,68,0.00,,,0.00,,2013-04-05 04:22:00,
2013-04-04 23:32:00,46.0,37.0,30.01,NNW,327,1.0,6.0,71,0.00,,,0.00,,2013-04-05 04:32:00,
2013-04-04 23:42:00,46.0,37.0,30.01,NNW,327,1.0,6.0,71,0.00,,,0.00,,2013-04-05 04:42:00,
2013-04-04 23:52:00,46.0,37.0,30.01,WSW,240,2.0,5.0,72,0.00,,,0.00,,2013-04-05 04:52:00,